Minot AFB, ND

1:06 AM CDT on October 21, 2019 (GMT -0500)
Minot Air Force Base

Weather History for KMIB - August, 2019

Change the Weather History Date:

Sunday, August 4, 2019

  Actual Average Record
Temperature  
Mean Temperature 72 °F -  
Max Temperature 83 °F 79 °F 102 °F (2001)
Min Temperature 61 °F 55 °F 47 °F (2015)
Cooling Degree Days 6    
Growing Degree Days 22 (Base 50)    
Moisture  
Dew Point 61 °F    
Average Humidity 76    
Maximum Humidity 99    
Minimum Humidity 41    
Precipitation  
Precipitation 0.35 in - - ()
Sea Level Pressure  
Sea Level Pressure 29.96 in    
Wind  
Wind Speed 5 mph (NNE)    
Max Wind Speed 12 mph    
Max Gust Speed -    
Visibility 9 miles    
Events Rain , Hail , Thunderstorm    
Averages and records for this station are not official NWS values.
T = Trace of Precipitation, MM = Missing Value Source: NWS Daily Summary

Daily Weather History Graph

Daily Weather History Graph

Search for Another Location

Airport or City:

Astronomy

Aug. 04, 2019 Rise Set
Actual Time 6:24 AM CDT 9:18 PM CDT
Civil Twilight 5:47 AM CDT 9:54 PM CDT
Nautical Twilight 5:00 AM CDT 10:40 PM CDT
Astronomical Twilight 4:03 AM CDT 11:37 PM CDT
Moon 10:49 AM CDT (8/4) 11:37 PM CDT (8/4)
Length of Visible Light 16h 06m
Length of Day
14h 54m
Waxing Crescent, 18% of the Moon is Illuminated
Aug 4
Waxing Crescent
Aug 7
First Quarter
Aug 15
Full
Aug 23
Last Quarter
Aug 30
New

Hourly Weather History & Observations

Time (CDT) Temp. Heat Index Dew Point Humidity Pressure Visibility Wind Dir Wind Speed Gust Speed Precip Events Conditions
12:56 AM 69.6 °F - 66.9 °F 91% 29.90 in 10.0 mi South 8.1 mph - N/A   Clear
1:56 AM 68.9 °F - 66.7 °F 93% 29.90 in 10.0 mi South 4.6 mph - N/A   Clear
2:56 AM 69.1 °F - 66.4 °F 91% 29.92 in 10.0 mi North 9.2 mph - N/A   Clear
3:56 AM 65.8 °F - 64.4 °F 95% 29.92 in 10.0 mi Calm Calm - N/A   Clear
4:56 AM 62.4 °F - 61.5 °F 97% 29.93 in 1.1 mi Calm Calm - N/A   Clear
5:06 AM 62.6 °F - 60.8 °F 94% 29.93 in 7.0 mi Calm Calm - N/A   Clear
5:56 AM 61.0 °F - 60.6 °F 99% 29.94 in 10.0 mi West 8.1 mph - N/A   Clear
6:56 AM 61.2 °F - 60.8 °F 99% 29.95 in 10.0 mi NW 6.9 mph - N/A   Clear
7:56 AM 65.3 °F - 64.8 °F 98% 29.98 in 10.0 mi NW 5.8 mph - N/A   Clear
8:56 AM 68.9 °F - 64.8 °F 87% 29.98 in 10.0 mi North 6.9 mph - N/A   Clear
9:56 AM 72.0 °F - 65.1 °F 79% 30.00 in 10.0 mi North 5.8 mph - N/A   Clear
10:56 AM 74.1 °F - 65.3 °F 74% 29.99 in 10.0 mi North 9.2 mph - N/A   Partly Cloudy
11:56 AM 75.7 °F - 63.1 °F 65% 29.99 in 10.0 mi Calm Calm - N/A   Clear
12:56 PM 78.4 °F - 59.9 °F 53% 30.01 in 10.0 mi NNE 6.9 mph - N/A   Partly Cloudy
1:56 PM 79.5 °F - 58.6 °F 49% 30.01 in 10.0 mi NE 4.6 mph - N/A   Partly Cloudy
2:56 PM 81.1 °F 81.3 °F 57.7 °F 45% 30.00 in 10.0 mi Calm Calm - N/A   Clear
3:56 PM 82.4 °F 81.9 °F 56.3 °F 41% 29.99 in 10.0 mi NE 6.9 mph - N/A   Clear
4:56 PM 82.2 °F 82.0 °F 57.4 °F 43% 29.97 in 10.0 mi North 3.5 mph - N/A   Clear
5:56 PM 82.8 °F 82.2 °F 56.7 °F 41% 29.95 in 10.0 mi NE 6.9 mph - N/A   Clear
6:56 PM 82.4 °F 82.0 °F 57.0 °F 42% 29.94 in 10.0 mi NE 3.5 mph - N/A   Clear
7:56 PM 81.1 °F 81.1 °F 56.5 °F 43% 29.93 in 10.0 mi Calm Calm - N/A   Clear
8:56 PM 76.5 °F - 59.0 °F 55% 29.92 in 10.0 mi NE 4.6 mph - N/A   Clear
9:56 PM 68.9 °F - 59.9 °F 73% 29.92 in 10.0 mi SE 3.5 mph - N/A Thunderstorm Partly Cloudy
10:25 PM 73.4 °F - 57.2 °F 57% 29.94 in 10.0 mi NE 9.2 mph - N/A Thunderstorm Thunderstorm
10:30 PM 73.4 °F - 57.2 °F 57% 29.93 in 10.0 mi NNE 11.5 mph - N/A Rain , Hail , Thunderstorm Light Thunderstorms and Rain
10:45 PM 68.0 °F - 60.8 °F 78% 29.96 in 6.0 mi South 8.1 mph - N/A Rain , Thunderstorm Heavy Rain
10:50 PM 66.2 °F - 60.8 °F 83% 29.95 in 5.0 mi South 6.9 mph - N/A Rain , Hail , Thunderstorm Heavy Thunderstorms and Rain
10:56 PM 63.1 °F - 59.9 °F 89% 29.95 in 9.0 mi Calm Calm - 0.34 in Rain , Thunderstorm Light Thunderstorms and Rain
11:01 PM 62.6 °F - 59.0 °F 88% 29.96 in 10.0 mi Calm Calm - N/A Rain , Thunderstorm Light Thunderstorms and Rain
11:04 PM 62.6 °F - 59.0 °F 88% 29.96 in 10.0 mi South 6.9 mph - N/A Thunderstorm Thunderstorm
11:05 PM 62.6 °F - 59.0 °F 88% 29.96 in 10.0 mi SSW 5.8 mph - N/A Thunderstorm Mostly Cloudy
11:31 PM 62.6 °F - 60.8 °F 94% 29.97 in 10.0 mi Calm Calm - N/A Thunderstorm Thunderstorm
11:34 PM 62.6 °F - 60.8 °F 94% 29.96 in 10.0 mi NNE 3.5 mph - N/A Thunderstorm Unknown
11:49 PM 64.4 °F - 60.8 °F 88% 29.96 in 10.0 mi North 5.8 mph - N/A Rain , Thunderstorm Light Rain
11:53 PM 64.4 °F - 60.8 °F 88% 29.96 in 10.0 mi North 3.5 mph - N/A Rain , Thunderstorm Light Thunderstorms and Rain
11:56 PM 64.4 °F - 61.0 °F 89% 29.96 in 9.0 mi North 6.9 mph - 0.01 in Rain , Thunderstorm Light Thunderstorms and Rain